DMSP 5D-2 F11 DEB, 35532

Orbit data source: Space-Track

DMSP 5D-2 F11 DEB, 35532 is space debris in SSO originally from a launch on Thu, 28 Nov 1991 UTC launched from the Air Force Western Test Range (AFWTR). Debris objects in space refer to the collection of defunct objects orbiting the Earth. Examples of debris include non-operational satellites, rocket bodies, and fragments generated from explosions, collisions, or faulty payload assembly.

Loading next visibility...
Identifier
35532, 1991-082CP
Orbit
SSO
Country
Flag of USUS
Related business
Manufacturer
Unknown
Mission
Spacecraft
Bus & Motor
Unknown
Mass
Unknown
Launch date (UTC)
1991-11-28 (34 years ago)
Launch vehicle
Unknown
Launch site
Air Force Western Test Range (AFWTR)
Object type
Payload
Rocket body
Debris
Shape & HBR
Unknown shape, 0.1 m
Radar Cross Section
Small (<0.1 m²)

Expand to show TLE details & history
Last TLE update: 20 hours ago

TLE from 20 hours ago
0 DMSP 5D-2 F11 DEB
1 35532U 91082CP  26120.88416579  .00028146  00000-0  60262-2 0  9996
2 35532  98.7010 278.2538 0068346 170.0892 190.1672 14.57195050660223
Epoch: 2026-04-30T21:13Z
TLE epoch observation values (Epoch: 2026-04-30T21:13:11.924Z)
Latitude
0.00006°
Longitude
101.12974°
Altitude
752.863 km
Speed
7.453 km/s
True Right ascension
18h 33m 00s
True Declination
0° 00' 00"
Sunlit
Object was in full shadow at epoch
Visualization orbit readout
Latitude
Unknown
Longitude
Unknown
Altitude
Unknown
Speed
Unknown
Apparent Right ascension
Unknown
Apparent Declination
Unknown
Sunlit
N/A
Visualization observer readout
Local Sidereal Time
01:14:19
Azimuth
Unknown
Elevation
Unknown
Doppler factor
Unknown
Orbital elements
Apogee altitude
747.726 km
Perigee altitude
650.982 km
Semi-major axis
7,077.491 km
Eccentricity
0.00683
Inclination
98.701°
RAAN
278.2538°
Arg. of periapsis
170.0892°
True anomaly
190.0301°
Mean anomaly
190.1672°
Eccentric anomaly
190.09854°
Mean motion
3.64522 °/min
Orbital period
98.76 mins
BSTAR
0.0060262
Loading maneuver chart data...
Computing Atmospheric mass density...
Loading historical data...
Loading historical data...
Loading historical data...
Loading historical data...
Loading historical data...
Loading historical data...
Loading historical data...

Documentation

Showing up to 5 results
|